sat.trackr.live / text

‹ back to catalog

STARLINK-4632

NORAD 53679 · 2022-105AH

PAYLOAD ACTIVE UNKNOWN

§ Identity

Operator
Country
US
Launch date
2022-08-31
Launch site
AFWTR
Launch vehicle
Mass (kg)
RCS (m²)

Purposes: comms

External: N2YO · Heavens-Above · Gunter

§ Orbital elements

Epoch: 2026-05-25T03:34:48.809856Z

Period
95.64 min
Inclination
97.4504°
Eccentricity
0.0002170
Mean motion
15.05659048 rev/d
Perigee alt
548.0 km
Apogee alt
551.0 km
Semi-major
6,927.6 km
B*
-4.6554e-5
RAAN
26.2890°
Arg perigee
94.8758°
Mean anomaly
265.2717°
Rev number
20,481

§ Raw data

STARLINK-46321 53679U 22105AH  26145.14917604 -.00000730  00000+0 -46554-4 0  99992 53679  97.4504  26.2890 0002170  94.8758 265.2717 15.05659048204817

JSON: /api/v1/satellites/53679 · /tle

For live sub-satellite position, see the globe view (requires WebGL).

§ Visibility from observer

Set your observer location to see the next 7 days of passes ≥ 10°. The values pass through the URL so the page stays shareable.

No JS? Fill the form by hand. The geolocation button needs JavaScript.